Location: Br�ttisellen
(47.4227°N, 8.6287°E)
Time: 13:36:22
(UTC+00:00)

Cosmos 962 Rocket - Pass Details

Date: 09 April 2020
Orbit: 950 x 1000 km, 82.9° (Epoch: 25 May)

Event Time Altitude Azimuth Distance (km) Brightness Sun altitude
Rises 19:19:03 0° 352° (N) 3,656 8.0 -12.3°
Reaches altitude 10° 19:21:35 10° 355° (N) 2,700 7.3 -12.7°
Maximum altitude 19:27:45 72° 80° (E) 1,004 4.4 -13.6°
Drops below altitude 10° 19:33:50 10° 164° (SSE) 2,668 6.4 -14.5°
Enters shadow 19:34:10 - 165° (SSE) 2,795 6.5 -14.5°
